Location: Newark
(15.4608°S, 41.1635°W)
Time: 17:29:37
(UTC+00:00)

Envisat - Pass Details

Date: 14 December 2019
Orbit: 764 x 766 km, 98.1° (Epoch: 25 January)

Event Time Altitude Azimuth Distance (km) Brightness Sun altitude
Rises 21:30:15 0° 174° (S) 3,246 6.5 -5.2°
Reaches altitude 10° 21:32:35 10° 178° (S) 2,315 5.8 -5.7°
Maximum altitude 21:37:37 61° 257° (WSW) 870 3.7 -6.7°
Drops below altitude 10° 21:42:36 10° 336° (NNW) 2,294 5.5 -7.8°
Sets 21:44:54 0° 340° (NNW) 3,215 6.2 -8.3°
